Location: Heppenheim
(49.6410°N, 8.6370°E)
Time: 16:20:12
(UTC+02:00)

ISS - Pass Details

Date: 14 May 2026
Orbit: 414 x 424 km, 51.6° (Epoch: 21 May)

Event Time Altitude Azimuth Distance (km) Brightness Sun altitude
Rises 22:31:50 0° 271° (W) 2,350 0.7 -11.9°
Reaches altitude 10° 22:33:57 10° 275° (W) 1,488 -0.3 -12.1°
Maximum altitude 22:37:15 60° 356° (N) 482 -3.2 -12.5°
Drops below altitude 10° 22:40:34 10° 78° (ENE) 1,492 -1.2 -12.8°
Enters shadow 22:41:23 - 80° (E) 1,823 -0.8 -12.9°
